Starlink 30955

operational
NORAD ID: 58417 Int'l Des: 2023-180 Owner: SPXS Country: US Constellation: starlink
LEOCIRCULAR

Über Starlink 30955

Beschreibung wird geladen...

Live-Position

3D-Globus wird geladen...

Nächste Überflüge

Höhenverlauf

Altitude vs Time

uPlot chart will show altitude changes over time

Zweizeiliger Elementsatz

1 58417U 23180R 25300.77429000 .00000701 00000-0 66957-4 0 9993
2 58417 43.0031 58.0247 0001220 270.1920 89.8783 15.02542522107593
Epoch: 27. Okt. 2025 • Age: 16 hours

Aktueller Status

Höhe 558.5 km
Geschwindigkeit 7.59 km/s
Subsatellitenpunkt 17.18°N, 123.16°W
Startdatum 22. Nov. 2023
Alter 1.9 years
Typ internet

Technische Details

Klassifizierung Payload
Masse 730.00 kg
Trockenmasse 700.00 kg
Gesamtmasse 730.00 kg
Länge 0.30 m
Durchmesser 4.10 m
Spannweite 29.00 m
Form Box + pan
Hersteller SPXS
Bus-Typ Starlink V2M
Phasenstatus In Orbit
Besitzer/Staat SPXS/US

Große Konstellationen

Loading constellations...